ROCKY HARBOUR CS, NFLD. current weather conditions

sailwx.info

Last reported at 2017-Feb-23 06:09 UTC.
Time now 2017-Apr-29 03:46 UTC

Location: N 49°34' W 057°53'.
View on Google Maps.

See reports from other nearby stations

  
Tides and Currents Weather Stations Pressure Air Temp Water Temp Dewpoint Dewpoint Depression Visibility Wind Speed Wind Dir Waves Ship Positions
date/time (UTC)wind fromknots sea level pressurealtimeterstation pressurevisibilityair tempwater tempwave heightnotes
2017-Apr-29 03:00 6.1
2017-Apr-29 02:00 130 0 6.0
2017-Apr-29 01:00 130 1 5.9
2017-Apr-29 00:00 150 6 gusting 15 5.9
2017-Apr-28 23:00 160 8 gusting 17 5.3
2017-Apr-28 22:00 160 9 gusting 20 5.6
2017-Apr-28 21:00 170 7 gusting 15 6.3
2017-Apr-28 20:00 160 8 gusting 20 5.6
2017-Apr-28 19:00 160 9 gusting 19 5.3
2017-Apr-28 18:00 170 7 gusting 20 6.3
2017-Apr-28 17:00 160 7 gusting 17 5.3
2017-Apr-28 16:00 140 4 3.8
2017-Apr-28 15:00 140 5 3.4
2017-Apr-28 14:00 110 6 gusting 15 2.8
2017-Apr-28 13:00 150 6 gusting 14 1.5
2017-Apr-28 12:00 130 6 2.2
2017-Apr-28 11:00 140 6 gusting 14 2.0
2017-Apr-28 10:00 140 1 1.6
2017-Apr-28 09:00 130 2 1.4
2017-Apr-28 08:00 150 4 1.0
2017-Apr-28 07:00 150 5 1.4
2017-Apr-28 06:00 160 6 gusting 19 0.5
2017-Apr-28 05:00 160 7 gusting 18 1.4
2017-Apr-28 04:00 160 6 gusting 17 1.6
2017-Apr-28 03:00 160 6 0.5
2017-Apr-28 02:00 160 1 1.6
2017-Apr-28 01:00 160 2 1.0
2017-Apr-28 00:00 150 1 1.4
2017-Apr-27 23:00 150 1 1.6
2017-Apr-27 22:00 160 2 1.7
2017-Apr-27 21:00 150 4 1.8
2017-Apr-27 20:00 150 1 2.2
2017-Apr-27 19:00 160 4 2.0
2017-Apr-27 18:00 150 0 2.6
2017-Apr-27 17:00 150 1 3.2
2017-Apr-27 16:00 150 0 3.6
2017-Apr-27 15:00 3.6
2017-Apr-27 14:00 120 0 3.4
2017-Apr-27 13:00 090 6 3.0
2017-Apr-27 12:00 3.0
2017-Apr-27 11:00 3.0
2017-Apr-27 10:00 1.5
2017-Apr-27 09:00 2.8
2017-Apr-27 08:00 3.2
2017-Apr-27 07:00 3.7
2017-Apr-27 06:00 020 0 4.2
2017-Apr-27 05:00 310 1 5.9
2017-Apr-27 04:00 230 14 gusting 25 9.9
2017-Apr-27 03:00 230 1 6.3